Location: Munkebjergskolens Observatorium
(55.3864°N, 10.3987°E)
Time: 22:22:02
(UTC+01:00)

Envisat - Pass Details

Date: 01 December 2022
Orbit: 763 x 765 km, 98.2° (Epoch: 01 February)

Event Time Altitude Azimuth Distance (km) Brightness Sun altitude
Rises 04:51:57 0° 15° (NNE) 3,249 6.5 -28.4°
Reaches altitude 10° 04:54:16 10° 16° (NNE) 2,318 5.7 -28.1°
Enters shadow 04:58:53 73° 22° (NNE) 806 3.0 -27.4°
